Back to catalog

THORAD DELTA 1 DEB

AliveSSO
NORAD 42599·DEBRIS·🇺🇸 United States

Launched Nov 15, 1974 from Vandenberg Space Force Base

Loading…

Next Passes (next 24 hours)

TLE

FreshSource: Space-Track

Epoch: Sep 14, 2026, 13:38 UTC

1 42599U 74089FQ  26257.56860334  .00000369  00000-0  22683-2 0  9995
2 42599 101.5442 356.0289 0050641 303.7262  67.6159 12.63423233577822

Track THORAD DELTA 1 DEB in real time with AllMySat

Download on the App Store